Terug naar catalogus

GLOBALSTAR M028

ActiefCommunicatieLEO
NORAD 25875·PAYLOAD·🇺🇸 United States

Gelanceerd Jul 25, 1999 vanaf Cape Canaveral Space Force Station

Loading…

Volgende Passages (komende 24 uur)

TLE

VersSource: Space-Track

Epoch: Sep 14, 2026, 10:30 UTC

1 25875U 99041D   26257.43782773 -.00000054  00000-0  30034-3 0  9996
2 25875  51.9616 278.5430 0063253 338.2020  21.6153 12.50604405247012

Volg GLOBALSTAR M028 in realtime met AllMySat

Download on the App Store